Hourly Data Report for July 29, 2016

TORONTO CITY
ONTARIO

43°40'00.000" N
79°24'00.000" W
112.50 m
6158355
71508
XTO

Download Data

Hourly Data (July 2016)
Hourly Data Report for July 29, 2016
TIME
LST
Temp Definition
°C
Dew Point Definition
°C
Rel Hum Definition
%
Precip. Amount Definition
mm

Wind Dir Definition
10's deg

Wind Spd Definition
km/h
Visibility Definition
km
Stn Press Definition
kPa
Hmdx Definition


Wind Chill Definition


Weather Definition


00:00 22.5 16.2 67 0.0 LegendMM LegendMM   99.93 27   LegendNANA
01:00 22.7 17.3 71 0.0 LegendMM LegendMM   99.95 28   LegendNANA
02:00 21.5 17.3 77 0.0 LegendMM LegendMM   99.97 27   LegendNANA
03:00 19.8 17.3 86 4.1 LegendMM LegendMM   99.97     LegendNANA
04:00 19.0 15.4 79 0.9 LegendMM LegendMM   99.99     LegendNANA
05:00 19.7 14.9 74 0.0 LegendMM LegendMM   100.00     LegendNANA
06:00 19.9 14.2 70 0.0 LegendMM LegendMM   100.06     LegendNANA
07:00 20.5 13.5 64 0.0 LegendMM LegendMM   100.11     LegendNANA
08:00 21.8 14.7 64 0.0 LegendMM LegendMM   100.15 26   LegendNANA
09:00 22.6 13.9 58 0.0 LegendMM LegendMM   100.17 26   LegendNANA
10:00 23.1 14.3 58 0.0 LegendMM LegendMM   100.18 27   LegendNANA
11:00 24.6 15.0 55 0.0 LegendMM LegendMM   100.18 29   LegendNANA
12:00 25.0 14.9 53 0.0 LegendMM LegendMM   100.18 29   LegendNANA
13:00 24.6 13.7 51 0.0 LegendMM LegendMM   100.16 28   LegendNANA
14:00 25.5 14.4 50 0.0 LegendMM LegendMM   100.14 29   LegendNANA
15:00 26.6 14.8 48 0.0 LegendMM LegendMM   100.11 30   LegendNANA
16:00 25.6 14.2 49 0.0 LegendMM LegendMM   100.09 29   LegendNANA
17:00 25.8 13.8 47 0.0 LegendMM LegendMM   100.08 29   LegendNANA
18:00 25.4 14.9 52 0.0 LegendMM LegendMM   100.12 29   LegendNANA
19:00 24.8 14.0 51 0.0 LegendMM LegendMM   100.12 28   LegendNANA
20:00 23.8 14.5 56 0.0 LegendMM LegendMM   100.16 27   LegendNANA
21:00 24.1 13.7 52 0.0 LegendMM LegendMM   100.19 27   LegendNANA
22:00 23.1 13.6 55 0.0 LegendMM LegendMM   100.26 26   LegendNANA
23:00 22.6 12.7 53 0.0 LegendMM LegendMM   100.25 25   LegendNANA

Notes on Data Quality.

Legend

  • E = Estimated
  • M = Missing
  • NA = Not Available*
  • [empty] = Indicates an unobserved value
Date modified: